This is the latest recevied weather packets stored in our database for station/object N2UGS-WX. If no packets are shown the sender has not sent any weather packets the latest 10 day(s).
| Time | Temp. | Humidity | Pressure | Rain* | Wind** | Luminosity | Snow |
|---|---|---|---|---|---|---|---|
| 1777917902 | 22.22° C | 39% | 1005.8 hPa | 0 mm | - | - | - |
| 1777917001 | 21.67° C | 41% | 1006.1 hPa | 0 mm | - | - | - |
| 1777916101 | 21.11° C | 44% | 1006.1 hPa | 0 mm | - | - | - |
| 1777915202 | 20.56° C | 45% | 1006.1 hPa | 0 mm | - | - | - |
| 1777914542 | 20° C | 44% | 1006.1 hPa | 0 mm | - | - | - |
| 1777913701 | 18.89° C | 45% | 1006.4 hPa | 0 mm | - | - | - |
| 1777913042 | 18.89° C | 46% | 1006.4 hPa | 0 mm | - | - | - |
| 1777912202 | 18.89° C | 46% | 1006.8 hPa | 0 mm | - | - | - |
| 1777911301 | 17.78° C | 47% | 1006.8 hPa | 0 mm | - | - | - |
| 1777910403 | 17.78° C | 46% | 1007.1 hPa | 0 mm | - | - | - |
| 1777909803 | 17.78° C | 46% | 1007.1 hPa | 0 mm | - | - | - |
| 1777908902 | 17.78° C | 48% | 1007.1 hPa | 0 mm | - | - | - |
| 1777908002 | 17.22° C | 50% | 1007.1 hPa | 0 mm | - | - | - |
| 1777907103 | 17.22° C | 47% | 1007.1 hPa | 0 mm | - | - | - |
| 1777906201 | 17.22° C | 48% | 1007.1 hPa | 0 mm | - | - | - |
| 1777904402 | 16.67° C | 50% | 1007.1 hPa | 0 mm | - | - | - |
| 1777903502 | 15.56° C | 49% | 1007.1 hPa | 0 mm | - | - | - |
| 1777902602 | 15.56° C | 51% | 1007.1 hPa | 0 mm | - | - | - |
| 1777901702 | 15.56° C | 50% | 1007.1 hPa | 0 mm | - | - | - |
| 1777901042 | 15° C | 51% | 1007.1 hPa | 0 mm | - | - | - |
| 1777900202 | 14.44° C | 51% | 1007.1 hPa | 0 mm | - | - | - |
| 1777899302 | 14.44° C | 51% | 1007.5 hPa | 0 mm | - | - | - |
| 1777898403 | 13.89° C | 53% | 1007.5 hPa | 0 mm | - | - | - |
| 1777897502 | 12.78° C | 54% | 1007.5 hPa | 0 mm | - | - | - |
| 1777896603 | 12.22° C | 55% | 1007.5 hPa | 0 mm | - | - | - |
* Rain latest hour (hover to see other rain measurements)
** Current wind speed in m/s (hover to see current wind gust speed)